Regional Weather Roundup
Issued by NWS

Home | Current Version | Previous Version | Text Only | Print | Product List | Glossary Off
Versions: 1 2 3 4 5 6 7 8 9 10 11 12 13 14 15 16 17 18 19 20 21 22 23 24 25 26 27 28 29 30 31 32 33 34 35 36 37 38 39 40 41 42 43 44 45 46 47 48 49 50

000
ASUS44 KMEG 230410
RWRTN
TENNESSEE HOURLY STATE WEATHER ROUNDUP
NATIONAL WEATHER SERVICE MEMPHIS TN
1100 PM CDT FRI SEP 22 2017

TNZ002-004-019-021-049-052-054-088>092-230500-
WEST TENNESSEE

CITY           SKY/WX    TMP DP  RH WIND       PRES   REMARKS
MEMPHIS INTL   CLEAR     81  69  67 E6        29.99S
NWS MEMPHIS      N/A     74 N/A N/A MISG        N/A
JACKSON        CLEAR     69  69 100 CALM      30.01S
DYERSBURG      CLEAR     72  70  93 E3        30.01S
SOMERVILLE     CLEAR     72  70  94 CALM      30.00R
COVINGTON      CLEAR     72  70  94 CALM      30.00S
BOLIVAR        CLEAR     72  70  94 CALM      30.00S FOG
PARIS          CLEAR     68  68 100 CALM      30.01S
HUNTINGDON     CLEAR     70  70 100 CALM      30.01S
LEXINGTON      CLEAR     70  70 100 CALM      30.01S FOG
SELMER         CLEAR     72  70  94 E3        30.01S
SAVANNAH       CLEAR     70  70 100 CALM      30.00S
$$

TNZ008-025-027-028-033-062-065-066-230500-
NORTH MIDDLE TENNESSEE

CITY           SKY/WX    TMP DP  RH WIND       PRES   REMARKS
NASHVILLE      PTCLDY    76  68  76 CALM      30.03S
PORTLAND       CLEAR     68  68 100 CALM      30.04S
CLARKSVILLE    CLEAR     70  66  87 CALM      30.03S
SMYRNA         CLEAR    N/A N/A N/A MISG        N/A
COOKEVILLE     CLEAR     68  68 100 CALM      30.05S
GALLATIN       CLEAR     72  68  88 CALM      30.05S
CROSSVILLE     CLEAR     67  65  93 CALM      30.11S
$$

TNZ061-075-076-078-094-096-097-230500-
SOUTH MIDDLE TENNESSEE

CITY           SKY/WX    TMP DP  RH WIND       PRES   REMARKS
FAYETTEVILLE   CLEAR     73  68  83 CALM      30.03S
TULLAHOMA      CLEAR     68  64  88 CALM      30.06S
WINCHESTER     CLEAR     68  66  94 CALM      30.05S
MCMINNVILLE    CLEAR     70  70 100 CALM      30.05S
COLUMBIA       CLOUDY    70 N/A N/A CALM      30.01F
SHELBYVILLE    CLEAR     70  68  94 CALM      30.03S
$$

TNZ017-018-042-046-047-230500-
NORTHEAST TENNESSEE

CITY           SKY/WX    TMP DP  RH WIND       PRES   REMARKS
TRI CITIES     PTCLDY    65  64  97 CALM      30.10S
ELIZABETHTON   PTCLDY    64  61  88 CALM      30.11R
$$

TNZ012-013-036-069-073-074-230500-
CENTRAL EAST TENNESSEE

CITY           SKY/WX    TMP DP  RH WIND       PRES   REMARKS
KNOXVILLE      PTCLDY    73  67  81 CALM      30.04S
OAK RIDGE      CLEAR     70  66  87 CALM      30.07S
DOWNTOWN KNOXV   N/A     68  68 100 CALM      30.04S FOG
GATLINBURG     CLEAR     68  61  77 CALM      30.06R
MORRISTOWN     MOCLDY    73  64  73 CALM      30.07R
JACKSBORO      CLEAR     68  66  94 CALM      30.11R
$$

TNZ083-085-099-230500-
SOUTHEAST TENNESSEE

CITY           SKY/WX    TMP DP  RH WIND       PRES   REMARKS
CHATTANOOGA    PTCLDY    74  68  81 CALM      30.04R
DAYTON         CLEAR     68  68 100 CALM      30.04R
$$

SKY/WX REPORTED AS FAIR MEANS FEW OR NO CLOUDS BELOW
12 THOUSAND FEET.





USA.gov is the U.S. government's official web portal to all federal, state and local government web resources and services.